Location: East Guldeford
(50.9500°N, 0.7500°E)
Time: 18:39:32
(UTC+00:00)

SJ 16-02 - Pass Details

Date: 12 May 2021
Orbit: 606 x 616 km, 75.0° (Epoch: 16 June)

Event Time Altitude Azimuth Distance (km) Brightness Sun altitude
Exits shadow 21:32:51 - 202° (SSW) 2,292 4.0 -14.1°
Reaches altitude 10° 21:33:38 10° 202° (SSW) 1,975 3.6 -14.2°
Maximum altitude 21:38:04 88° 293° (WNW) 625 1.3 -14.6°
Drops below altitude 10° 21:42:32 10° 22° (NNE) 1,991 4.4 -15.0°
Sets 21:44:47 0° 23° (NNE) 2,900 5.3 -15.2°
